(90482) Orcus
ephemeris date magn radius delta ra dec elong phase
Today21 Jun 202619.147.986 AU48.195 AU10h37m-13°00'77.5°1.2°
Opposition8 Mar 202719.047.968 AU47.038 AU10h43m-14°16'159.3°0.4°
(90482) Orcus - 2026-06-21
astro.vanbuitenen.nl


 
-1 year
-1 month
-1 day
Now
+1 day
+1 month
+1 year

The interactive orbit chart above shows the body's path through the solar system and its position at the given date. Green and blue lines are shown perpendicular to the ecliptic plane: Green if the path is above the ecliptic plane, blue if it is below. (Left-click and drag to rotate the view; Right-click and drag to move the view; Use scroll wheel to zoom in our out.)

The orbital elements of Orcus are:

            e (Eccentricity)                : 0.2205384
            a (Semimajor axis)              : 39.3761338
            i (Inclination)                 : 20.55681
            Ω (Longitude of ascending node) : 268.40537
            ω (Argument of perihelion)      : 73.56374
            M (Mean anomaly)                : 189.10476
            Epoch                           : 2026 Jun 09

            L (Longitude of perihelion)     : 340.91751
            B (Latitude of perihelion)      : 19.68123
            P (Orbital period in years)     : 247.09            
        

The light curve chart below shows the estimated development of the minor planet's magnitude.


The all-sky chart below shows the path of the minor planet over the same period as the light curve. The current position is marked yellow.





The following chart shows the path of the minor planet in the next few days. The field of view is optimized for (~10x50) binoculars and finderscopes.




Ephemerides:
Date       Time       RA (2000)    DEC (2000)    delta   radius  elong  phase   PA    magn
2026-06-21 00:00 UT   10 37 03.5   -13 00 52    48.195   47.986   77.5    1.2   118   19.1 
2026-06-21 20:36 UT   10 37 05.5   -13 00 42    48.208   47.986   76.8    1.2   118   19.1 
2026-06-22 00:00 UT   10 37 05.8   -13 00 41    48.210   47.986   76.7    1.2   118   19.1 
2026-06-23 00:00 UT   10 37 08.2   -13 00 30    48.225   47.986   75.8    1.2   119   19.1 
2026-06-24 00:00 UT   10 37 10.6   -13 00 20    48.241   47.986   74.9    1.2   119   19.1 
2026-06-25 00:00 UT   10 37 13.1   -13 00 11    48.256   47.985   74.0    1.2   119   19.1 
2026-06-26 00:00 UT   10 37 15.7   -13 00 02    48.271   47.985   73.1    1.2   120   19.1 
2026-06-27 00:00 UT   10 37 18.3   -12 59 53    48.286   47.985   72.2    1.2   120   19.1 
2026-06-28 00:00 UT   10 37 21.0   -12 59 46    48.301   47.985   71.4    1.2   120   19.1 
2026-06-29 00:00 UT   10 37 23.8   -12 59 39    48.315   47.985   70.5    1.1   121   19.1 
2026-06-30 00:00 UT   10 37 26.6   -12 59 32    48.330   47.985   69.6    1.1   121   19.1 
2026-07-01 00:00 UT   10 37 29.5   -12 59 26    48.345   47.985   68.7    1.1   122   19.1 
2026-07-02 00:00 UT   10 37 32.5   -12 59 21    48.359   47.985   67.8    1.1   122   19.1 
2026-07-03 00:00 UT   10 37 35.5   -12 59 16    48.374   47.985   67.0    1.1   122   19.1 
2026-07-04 00:00 UT   10 37 38.6   -12 59 12    48.388   47.985   66.1    1.1   123   19.1 
2026-07-05 00:00 UT   10 37 41.7   -12 59 09    48.402   47.985   65.2    1.1   123   19.1 
2026-07-06 00:00 UT   10 37 45.0   -12 59 06    48.416   47.985   64.3    1.1   123   19.1 
2026-07-07 00:00 UT   10 37 48.2   -12 59 03    48.430   47.985   63.5    1.1   124   19.1 
2026-07-08 00:00 UT   10 37 51.6   -12 59 02    48.444   47.985   62.6    1.1   124   19.1 
2026-07-09 00:00 UT   10 37 55.0   -12 59 01    48.458   47.985   61.7    1.1   125   19.1 
2026-07-10 00:00 UT   10 37 58.4   -12 59 00    48.471   47.984   60.9    1.1   125   19.1 
2026-07-11 00:00 UT   10 38 01.9   -12 59 00    48.485   47.984   60.0    1.1   125   19.1 
2026-07-12 00:00 UT   10 38 05.5   -12 59 01    48.498   47.984   59.1    1.0   126   19.1 
2026-07-13 00:00 UT   10 38 09.1   -12 59 02    48.511   47.984   58.3    1.0   126   19.1 
2026-07-14 00:00 UT   10 38 12.8   -12 59 04    48.524   47.984   57.4    1.0   127   19.1 
2026-07-15 00:00 UT   10 38 16.5   -12 59 07    48.537   47.984   56.6    1.0   127   19.1 
2026-07-16 00:00 UT   10 38 20.3   -12 59 10    48.549   47.984   55.7    1.0   128   19.1 
2026-07-17 00:00 UT   10 38 24.2   -12 59 14    48.562   47.984   54.8    1.0   128   19.1 
2026-07-18 00:00 UT   10 38 28.1   -12 59 18    48.574   47.984   54.0    1.0   129   19.1 
2026-07-19 00:00 UT   10 38 32.0   -12 59 23    48.587   47.984   53.1    1.0   129   19.1 
2026-07-20 00:00 UT   10 38 36.0   -12 59 29    48.599   47.984   52.3    1.0   130   19.1 
2026-07-21 00:00 UT   10 38 40.1   -12 59 35    48.610   47.984   51.4    0.9   130   19.1 


    Terminology:
            
    delta:  distance between minor planet and earth in AU
    radius: distance between minor planet and sun in AU
    magn:   magnitude (brightness) estimate    
    ra:     right ascension in hours (24h = 360deg)
    dec:    declination in degrees
    elong:  elongation in degrees (angle sun-earth-minor planet)    
    phase:  phase angle in degrees (angle sun-minor planet-earth)        
    AU:     Astronomical Unit (mean distance between earth and sun: 149597870.7 km
    

Orbital elements provided by the MPC (Minor Planet Center).
Calculations by a modified version of AAPlus, a C# implementation of the AA+ project by PJ Naughter from the algorithms presented in the book "Astronomical Algorithms" by Jean Meeus.
NGC2000 dso catalog and star labels from VizieR as provided by the Strasbourg astronomical Data Center.
Tycho2 catalog from the ESO archive.